User: anonymous   Login
Location: Avon Lake
(41.5219°N, 93.5010°W)
Time: 07:17:41
(UTC+00:00)
Language:

BlueWalker 3 - Orbit

View from above orbital plane
View from above orbital plane
View from above satellite
View from above satellite

Ground track
Ground track

The orbit data is extracted from the following two-line orbital elements,

1 53807U 22111AL  23038.89988593  .00005349  00000-0  26451-3 0  9997
2 53807  53.2054 304.1233 0013249  24.9143 335.2490 15.19339575 22785
Epoch (UTC): 07 February 2023 21:35:50
Eccentricity: 0.0013249
inclination: 53.2054°
perigee height: 499 km
apogee height: 517 km
right ascension of ascending node: 304.1233°
argument of perigee: 24.9143°
revolutions per day: 15.19339575
mean anomaly at epoch: 335.2490°
orbit number at epoch: 2278

The dashed part of the orbit path shows where the satellite is in the earth's shadow,  

DLR